SCP
0 0 0 0 0 0 0 0 0 0 0 0 0 0 0 0 0 0 0 0 0 0 0 0 0 0 0 0 0 0 0 0 0 0 0 0 0 0 0 0 0 0 0
0 0 0 0 0 0 0 0 0 0 0 0 0 0 0 0 0 0 0 0 0 0 0 0 0 0 0 0 0 0 0 0 0 0 0 0 0 0 0 0 0 0 0
0 0 0 0 0 0 0 0 0 0 0 0 0 0 0 0 0 0 0 0 0 0 0 0 0 0 0 0 0 0 0 0 0 0 0 0 0 0 0 0 0 0 0
0 0 0 0 0 0 0 0 0 0 0 0 0 0 0 0 0 0 0 0 0 0 0 0 0 0 0 0 0 0 0 0 0 0 0 0 0 0 0 0 0 0 0
0 0 0 0 0 0 0 0 0 0 0 0 0 0 0 0 0 0 0 0 0 0 0 0 0 0 0 0 0 0 0 0 0 0 0 0 0 0 0 0 0 0 0
0 0 0 0 0 0 0 0 0 0 0 0 0 0 0 0 0 0 0 0 0 0 0 0 0 0 0 0 0 0 0 0 0 0 0 0 0 0 0 0 0 0 0
0 0 0 0 0 0 0 0 0 0 0 0 0 0 0 0 0 0 0 0 0 0 0 0 0 0 0 0 0 0 0 0 0 0 0 0 0 0 0 0 0 0 0
0 0 0 0 0 0 0 0 0 0 0 0 0 0 0 0 0 0 0 0 0 0 0 0 0 0 0 0 0 0 0 0 0 0 0 0 0 0 0 0 0 0 0
0 0 0 0 0 0 0 0 0 0 0 0 0 0 0 0 0 0 0 0 0 0 0 0 0 0 0 0 0 0 0 0 0 0 0 0 0 0 0 0 0 0 0
0 0 0 0 0 0 0 0 0 0 0 0 0 0 0 0 0 0 0 0 0 0 0 0 0 0 0 0 0 0 0 0 0 0 0 0 0 0 0 0 0 0 0
0 0 0 0 0 0 0 0 0 0 0 0 0 0 0 0 0 0 0 0 0 0 0 0 0 0 0 0 0 0 0 0 0 0 0 0 0 0 0 0 0 0 0
0 0 0 0 0 0 0 0 0 0 0 0 0 0 0 0 0 0 0 0 0 0 0 0 0 0 0 0 0 0 0 0 0 0 0 0 0 0 0 0 0 0 0
0 0 0 0 0 0 0 0 0 0 0 0 0 0 0 0 0 0 0 0 0 0 0 0 0 0 0 0 0 0 0 0 0 0 0 0 0 0 0 0 0 0 0
0 0 0 0 0 0 0 0 0 0 0 0 0 0 0 0 0 0 0 0 0 0 0 0 0 0 0 0 0 0 0 0 0 0 0 0 0 0 0 0 0 0 0
0 0 0 0 0 0 0 0 0 0 0 0 0 0 0 0 0 0 0 0 0 0 0 0 0 0 0 0 0 0 0 0 0 0 0 0 0 0 0 0 0 0 0
0 0 0 0 0 0 0 0 0 0 0 0 0 0 0 0 0 0 0 0 0 0 0 0 0 0 0 0 0 0 0 0 0 0 0 0 0 0 0 0 0 0 0
0 0 0 0 0 0 0 0 0 0 0 0 0 0 0 0 0 0 0 0 0 0 0 0 0 0 0 0 0 0 0 0 0 0 0 0 0 0 0 0 0 0 0
0 0 0 0 0 0 0 0 0 0 0 0 0 0 0 0 0 0 0 0 0 0 0 0 0 0 0 0 0 0 0 0 0 0 0 0 0 0 0 0 0 0 0
0 0 0 0 0 0 0 0 0 0 0 0 0 0 0 0 0 0 0 0 0 0 0 0 0 0 0 0 0 0 0 0 0 0 0 0 0 0 0 0 0 0 0
0 0 0 0 0 0 0 0 0 0 0 0 0 0 0 0 0 0 0 0 0 0 0 0 0 0 0 0 0 0 0 0 0 0 0 0 0 0 0 0 0 0 0
0 0 0 0 0 0 0 0 0 0 0 0 0 0 0 0 0 0 0 0 0 0 0 0 0 0 0 0 0 0 0 0 0 0 0 0 0 0 0 0 0 0 0
0 0 0 0 0 0 0 0 0 0 0 0 0 0 0 0 0 0 0 0 0 0 0 0 0 0 0 0 0 0 0 0 0 0 0 0 0 0 0 0 0 0 0
0 0 0 1 1 0 0 0 0 0 0 0 0 0 0 0 0 0 0 0 0 0 0 0 0 0 0 0 0 0 0 0 0 0 0 0 0 0 0 0 0 0 0
0 0 0 0 1 0 0 0 0 0 0 0 0 0 0 0 0 0 0 0 0 0 0 0 0 0 0 0 0 0 0 0 0 0 0 0 0 0 0 0 0 0 0
0 0 0 0 0 0 0 0 0 0 0 0 0 0 0 0 0 0 0 0 0 0 0 0 0 0 0 0 0 0 0 0 0 0 0 0 0 0 0 0 0 0 0
0 0 0 0 0 0 0 0 0 0 0 0 0 0 0 0 0 0 0 0 0 0 0 0 0 0 0 0 0 0 0 0 0 0 0 0 0 0 0 0 0 0 0
Wind_Speed
4 5 11 11 13 13 14 14 14 14 15 15 15 16 16 17 17 17 17 17 18 18 19 19 19 19 20 20 19 19 19 19 19 19 19 19 19 19 18 17 15 11 18
8 7 10 11 13 13 14 14 14 14 14 15 15 16 16 17 17 17 17 17 17 18 18 18 18 18 18 18 18 18 18 18 18 17 17 15 17 18 18 17 16 12 17
10 8 9 11 13 14 14 14 13 14 15 15 15 16 16 16 17 17 17 17 17 17 17 17 17 17 16 16 16 16 17 17 17 16 14 8 11 17 18 17 17 17 16
11 9 9 11 13 14 14 13 14 14 14 15 15 16 16 16 16 16 16 16 16 16 17 17 16 16 15 16 16 16 16 16 16 14 8 7 7 15 17 17 16 16 16
9 8 9 11 13 14 13 13 14 14 14 14 15 15 16 16 16 16 16 15 15 15 16 16 15 15 15 15 15 16 16 16 15 11 7 6 6 14 15 15 15 15 14
9 8 9 12 13 13 13 13 14 14 14 14 14 14 15 15 15 15 15 15 14 14 14 14 14 13 14 15 15 15 15 15 11 6 6 5 5 12 14 14 13 13 13
10 7 8 11 12 12 13 13 13 13 13 14 14 14 14 14 14 14 14 14 13 13 13 13 12 12 13 13 14 14 13 12 7 6 5 5 6 12 12 12 12 12 12
11 9 8 11 11 11 11 12 12 13 13 13 13 13 13 13 13 13 13 13 12 12 12 12 11 11 11 12 13 12 10 9 8 6 4 4 7 10 11 10 10 10 10
10 9 7 7 8 10 11 10 11 11 11 12 12 12 11 11 12 11 11 11 11 11 11 10 10 9 10 11 12 11 10 9 5 3 4 3 7 9 9 9 8 8 8
8 8 7 6 6 6 7 10 11 11 11 11 11 10 10 10 10 9 8 9 10 10 9 9 8 8 8 9 9 9 8 6 4 3 2 2 6 7 7 7 6 6 6
9 8 8 7 6 6 6 8 9 10 10 10 9 10 8 5 5 5 7 8 8 8 8 7 6 6 6 7 7 7 6 2 3 2 1 2 4 5 5 5 4 4 4
12 10 8 8 8 7 6 5 4 5 6 5 5 6 4 4 4 5 7 7 7 6 5 5 4 4 4 3 4 5 2 2 2 1 0 2 2 3 3 2 2 2 1
12 11 9 9 8 7 5 5 3 3 3 4 5 5 4 4 3 3 2 3 3 3 2 2 2 1 1 1 1 2 1 1 1 0 1 2 1 1 0 1 1 1 2
12 12 11 10 9 8 7 5 5 4 4 4 5 6 5 3 3 3 2 3 2 1 1 1 0 0 0 0 0 1 1 0 0 1 2 4 4 4 4 4 4 4 4
12 12 12 11 11 9 8 6 6 5 5 5 5 5 6 5 5 4 3 3 3 2 2 2 1 1 1 1 1 1 1 1 2 2 2 5 6 7 8 8 7 7 7
13 13 12 12 11 10 8 7 6 6 5 5 5 6 7 5 5 5 4 4 3 3 3 3 3 2 2 1 2 2 2 3 3 3 3 4 7 9 10 11 11 11 11
13 13 13 12 11 11 10 8 6 5 5 5 5 6 6 6 6 5 4 4 4 3 3 2 2 1 2 2 3 3 3 3 4 4 4 4 4 8 11 13 13 13 13
11 13 13 11 11 11 9 8 6 6 6 5 5 5 7 7 6 5 4 4 4 3 3 3 2 2 2 2 3 3 3 4 5 5 5 4 4 4 7 12 14 14 15
13 14 14 12 13 11 10 7 6 6 6 5 5 5 6 6 6 5 4 4 4 3 3 3 2 2 2 3 3 4 4 4 5 5 6 6 5 5 4 8 11 12 15
12 13 14 13 12 10 8 6 5 6 6 5 5 6 7 6 6 5 4 5 5 4 3 3 3 2 2 2 2 4 5 5 4 5 6 5 5 5 5 5 5 6 12
10 12 14 14 13 10 8 8 8 7 6 5 5 7 7 7 7 6 4 5 5 5 5 5 3 3 3 1 1 4 4 4 5 5 4 4 5 5 5 5 4 4 5
10 11 12 13 13 12 10 8 5 5 4 4 5 6 7 7 7 6 6 5 5 5 5 5 4 2 2 3 2 1 4 5 3 3 3 3 4 3 5 5 5 6 5
9 10 10 12 12 12 10 6 4 3 3 4 5 5 6 7 7 7 7 6 6 5 5 6 6 6 4 3 3 3 2 3 4 3 2 2 3 3 4 4 6 6 6
7 6 7 9 10 11 10 9 9 8 7 7 4 4 5 6 6 7 6 6 6 5 5 5 6 5 4 3 2 3 4 1 2 4 4 3 3 4 5 4 5 6 6
4 4 4 6 7 9 10 11 11 8 6 4 4 5 4 3 5 5 6 5 5 4 5 5 5 5 4 4 3 2 3 3 4 4 6 5 4 3 4 5 5 5 5
2 2 3 4 5 6 9 10 11 10 8 6 5 5 3 2 1 2 3 3 3 3 4 4 4 4 4 4 3 3 3 3 3 4 6 5 6 5 4 4 4 5 4
Wind_Direction
142 150 131 124 116 111 107 101 98 95 91 88 86 84 83 81 81 80 79 78 78 78 78 78 78 77 76 75 74 73 72 71 69 68 69 70 70 70 68 65 61 58 65
146 144 128 124 118 114 111 105 101 99 95 91 90 89 87 85 83 83 81 80 80 81 80 80 79 78 76 74 74 75 76 74 71 67 65 66 70 70 68 66 66 66 66
136 133 125 123 121 117 115 110 105 101 98 94 92 91 88 87 85 84 83 82 83 83 83 81 80 78 73 70 71 75 80 78 73 66 61 52 64 70 69 67 65 65 66
135 133 128 125 124 121 118 113 109 104 101 97 93 93 91 89 87 86 84 82 83 84 84 83 81 77 70 66 68 76 82 81 74 67 55 48 58 71 69 67 65 64 64
131 130 132 128 126 124 123 119 113 109 105 102 97 95 93 91 88 87 85 84 83 84 84 83 81 76 69 66 69 80 87 84 76 65 52 47 54 72 71 69 66 64 62
130 132 136 132 129 127 126 125 119 114 110 106 102 98 96 95 92 90 89 87 86 85 85 83 81 74 69 66 69 80 88 87 76 61 51 47 55 73 74 72 70 67 65
134 135 137 133 131 130 129 128 125 120 116 112 108 104 101 100 98 95 93 90 89 88 86 84 81 73 68 65 67 75 84 88 81 67 54 47 65 74 73 72 70 67 65
139 137 136 134 133 131 130 129 128 126 122 119 116 112 107 105 102 99 97 95 93 92 89 86 82 74 68 64 65 69 75 89 88 78 61 48 69 76 74 72 70 67 65
138 137 135 136 134 131 129 129 130 128 126 124 121 115 108 105 104 101 99 99 97 96 92 88 82 74 67 62 60 62 71 88 90 81 70 52 69 76 78 76 72 70 68
139 143 142 139 135 132 130 132 133 132 130 128 124 120 116 112 109 104 100 103 103 101 97 92 84 73 62 54 52 56 67 78 85 81 66 67 71 77 81 77 73 70 68
153 156 153 150 146 141 140 142 139 138 137 135 134 134 124 117 113 109 113 110 110 108 105 98 84 64 48 38 40 50 59 65 86 84 73 84 80 79 76 72 69 67 67
169 172 168 162 159 155 153 146 144 143 146 145 147 146 137 135 132 126 124 123 120 117 112 104 85 56 44 24 22 39 45 68 79 95 171 125 96 82 75 71 59 62 67
172 173 176 172 169 166 158 161 160 154 157 160 162 161 149 140 135 129 126 125 126 126 103 90 68 47 48 37 26 29 35 58 76 282 263 225 204 219 256 248 285 278 259
173 179 178 176 173 174 166 170 170 167 172 175 178 170 156 155 158 162 163 168 170 170 173 171 170 183 132 97 79 44 22 17 255 244 263 253 250 254 263 262 264 267 260
179 181 180 177 177 176 172 176 177 179 181 181 179 177 169 167 172 176 180 182 188 187 187 193 206 214 224 272 288 285 293 276 263 251 262 258 259 260 265 268 267 264 261
185 184 180 179 178 175 177 179 179 181 180 179 184 184 178 175 176 178 182 188 195 194 191 190 201 209 229 247 265 266 266 267 262 259 255 261 260 261 264 267 270 269 269
189 186 185 183 179 179 180 179 176 179 178 183 189 188 183 181 180 180 184 193 199 193 188 186 197 202 233 247 260 264 266 265 264 262 258 251 258 261 262 265 270 273 274
189 188 189 186 184 184 183 182 178 179 181 187 188 189 191 188 185 183 189 200 194 181 181 187 190 205 235 245 260 269 270 271 266 262 259 255 253 257 263 265 269 272 275
193 190 190 189 188 189 186 184 183 181 187 189 189 193 197 196 190 187 194 198 183 180 188 191 195 198 230 250 262 271 268 262 262 264 262 260 257 258 259 268 269 271 275
194 191 191 191 191 186 183 183 186 191 194 193 192 195 195 197 194 191 197 196 181 182 193 196 206 208 226 245 271 277 270 263 261 258 260 264 263 263 265 267 270 272 272
191 190 191 191 190 185 187 191 194 200 197 198 196 194 197 200 199 196 196 195 189 195 203 199 191 207 231 195 277 300 293 266 258 259 257 265 271 272 273 271 270 269 275
191 192 192 192 190 190 194 192 189 181 186 197 197 199 200 200 200 198 198 196 194 197 201 196 185 188 215 181 184 269 313 320 304 273 267 260 270 277 276 275 275 272 271
192 192 192 193 192 193 186 174 164 167 178 195 202 204 207 204 201 198 200 197 194 193 202 202 195 196 216 207 195 192 229 270 308 306 287 274 276 278 277 279 274 272 272
200 195 195 193 192 191 184 181 180 190 200 204 193 194 199 203 203 201 199 198 196 196 203 204 201 203 205 217 207 225 233 235 268 304 302 283 279 273 274 275 274 274 272
185 185 190 189 192 189 188 189 189 195 195 178 172 178 187 196 200 197 196 193 194 195 201 199 197 200 205 211 200 198 221 233 225 249 284 300 304 268 264 267 270 272 273
133 151 168 177 190 187 187 189 190 188 178 169 172 167 168 164 165 175 177 182 189 192 200 203 199 198 208 215 210 195 199 214 217 232 264 284 291 287 278 265 263 267 272